Regional Weather Roundup
Issued by NWS

Home | Current Version | Previous Version | Text Only | Print | Product List | Glossary Off
Versions: 1 2 3 4 5 6 7 8 9 10 11 12 13 14 15 16 17 18 19 20 21 22 23 24 25 26 27 28 29 30 31 32 33 34 35 36 37 38 39 40 41 42 43 44 45 46 47 48 49 50

000
ASUS43 KMPX 311401
RWRMN
WEATHER ROUNDUP FOR MINNESOTA
NATIONAL WEATHER SERVICE TWIN CITIES/CHANHASSEN MN
900 AM CDT THU JUL 31 2014


NOTE: "FAIR" INDICATES FEW OR NO CLOUDS BELOW 12,000 FEET WITH NO
SIGNIFICANT WEATHER AND/OR OBSTRUCTIONS TO VISIBILITY. N/A MEANS
CURRENT SKY AND/OR WEATHER CONDITIONS ARE NOT AVAILABLE.

MNZ060>063-068>070-311500-
   Twin Cities Metro

CITY           SKY/WX    TMP DP  RH WIND       PRES   REMARKS
TWIN CITIES    MOSUNNY   70  57  63 W3        30.05S
ST PAUL        SUNNY     69  59  70 W5        30.04S
CRYSTAL        SUNNY     71  56  58 W5        30.03S
BLAINE         MOSUNNY   68  59  73 W3        30.04S
LAKEVILLE      SUNNY     66  57  72 W3        30.05S
EDEN PRAIRIE   SUNNY     67  61  81 CALM      30.04S
SOUTH ST PAUL  SUNNY     69  57  65 NW5       30.04S
LAKE ELMO      FAIR      68  61  77 W3        30.05S
$$
MNZ001>005-007-008-013>017-022>024-027-028-311500-
   Northwest Minnesota

CITY           SKY/WX    TMP DP  RH WIND       PRES   REMARKS
BEMIDJI        SUNNY     67  56  69 W8        30.03F
HALLOCK        SUNNY     64  61  88 NW5       30.02F
ROSEAU         SUNNY     64  59  82 CALM      30.02F
WARROAD        SUNNY     64  61  88 CALM      30.02F
THIEF RVR FALL SUNNY     64  61  88 NW6       30.03S
CROOKSTON      SUNNY     64  61  88 NW5       30.04S
FOSSTON        SUNNY     64  59  82 S3        30.04F
DETROIT LAKES  SUNNY     68  59  73 CALM      30.07S
MOORHEAD       SUNNY     64  63  94 CALM      30.05F
PARK RAPIDS    SUNNY     68  57  68 NW7       30.05S
$$
MNZ006-009>011-018-025>026-311500-
   North Central Minnesota

CITY           SKY/WX    TMP DP  RH WIND       PRES   REMARKS
BAUDETTE       SUNNY     67  62  84 CALM      30.02S
FLAG ISLAND    SUNNY     68  57  68 NW5       30.01S
INTL FALLS     SUNNY     65  59  81 NW3       30.00S
WASKISH        SUNNY     66  63  88 W3        30.02S
BIG FORK       SUNNY     64  61  88 CALM      30.02S
LONGVILLE      SUNNY     66  61  82 NW6       30.03R
GRAND RAPIDS   SUNNY     64  57  77 NW8       30.02S
CRANE LAKE     SUNNY     61  57  88 CALM      30.01S
ORR            SUNNY     63  61  94 CALM      29.98S
COOK           SUNNY     61  59  94 CALM      30.01S
$$
MNZ012-019>021-037-311500-
   Northeast Minnesota

CITY           SKY/WX    TMP DP  RH WIND       PRES   REMARKS
DULUTH         SUNNY     68  59  73 VRB3      30.00S
ELY            SUNNY     61  61 100 W3        30.00S
HIBBING        SUNNY     68  60  75 CALM      30.01S
EVELETH        SUNNY     63  63 100 CALM      30.00S
DULUTH HARBOR  SUNNY     66  61  82 SW3       29.98F
TWO HARBORS    SUNNY     68  57  68 NW3       29.96F
SILVER BAY     SUNNY     68  61  77 W3        29.96S
GRAND MARAIS     N/A     71  54  54 CALM      29.94S
G MARAIS ARPRT SUNNY     63  48  59 NW6       29.99R
$$
MNZ029>031-032-039>041-046>048-054>057-064-311500-
   West Central Minnesota

CITY           SKY/WX    TMP DP  RH WIND       PRES   REMARKS
FERGUS FALLS   MOSUNNY   64  57  77 CALM      30.06S
WHEATON        MOSUNNY   66  57  72 W6        30.09R
MORRIS         SUNNY     66  59  77 NW5       30.06S
ALEXANDRIA     MOSUNNY   66  59  78 NW3       30.08R
ELBOW LAKE     FAIR      61  58  90 W3        30.06S
WADENA         SUNNY     64  61  88 NW5       30.05S
GLENWOOD       SUNNY     64  61  88 CALM      30.07R
APPLETON       MOSUNNY   68  57  68 NW6       30.07R
BENSON         SUNNY     64  57  77 NW3       30.07R
ORTONVILLE     CLOUDY    66  55  68 NW3       30.07S HAZE
MADISON        SUNNY     70  61  73 CALM      30.07R
WILLMAR        FAIR      66  57  72 W3        30.08R
$$
MNZ033>034-036-042>043-049>051-058-059-311500-
   Central Minnesota

CITY           SKY/WX    TMP DP  RH WIND       PRES   REMARKS
ST CLOUD       MOSUNNY   69  57  65 NW3       30.04S
SAUK CENTRE    FAIR      62  58  87 CALM      30.06S
PAYNESVILLE    SUNNY     62  58  87 SW5       30.07R
AITKIN         SUNNY     70  61  73 CALM      30.02R
PINE RIVER     SUNNY     66  57  72 CALM      30.07S
BRAINERD       SUNNY     67  56  67 NW9       30.04S
STAPLES        MOSUNNY   66  57  72 W3        30.05S
LONG PRAIRIE   FAIR      64  57  77 CALM      30.06S
LITTLE FALLS   MOSUNNY   64  55  72 W3        30.05R
LITCHFIELD     SUNNY     70  63  78 W3        30.06S
BUFFALO        SUNNY     66  57  72 CALM      30.06S
MAPLE LAKE     SUNNY     67  61  79 CALM      30.06S
$$
MNZ037-044-045-052-053-311500-
   East Central Minnesota

CITY           SKY/WX    TMP DP  RH WIND       PRES   REMARKS
PRINCETON      MOSUNNY   66  57  72 W3        30.04S
MORA           MOSUNNY   68  55  64 W3        30.04S
CAMBRIDGE      MOSUNNY   70  55  60 W3        30.02S
RUSH CITY      MOSUNNY   68  58  69 W3        30.03S
MOOSE LAKE     SUNNY     64  59  82 CALM      29.99F
HINCKLEY       FAIR      68  61  77 NW6       30.01S
CLOQUET        SUNNY     64  57  77 NW5       30.00S
MCGREGOR       SUNNY     66  59  77 NW6       30.02S
$$
MNZ071>073-080-081-089-090-097-098-311500-
   Southwest Minnesota

CITY           SKY/WX    TMP DP  RH WIND       PRES   REMARKS
MONTEVIDEO     SUNNY     70  61  73 NW6       30.08R
GRANITE FALLS  SUNNY     64  58  80 CALM      30.09R
CANBY          SUNNY     71  60  68 CALM      30.08S
MARSHALL       MOSUNNY   70  61  73 CALM      30.07R
REDWOOD FALLS  MOSUNNY   65  59  81 NE5       30.07S
OLIVIA         SUNNY     68  59  73 W7        30.06S
PIPESTONE      SUNNY     68  57  68 CALM      30.10R
WINDOM         SUNNY     66  59  77 CALM      30.09F
WORTHINGTON    SUNNY     68  57  68 SW3       30.11S
JACKSON        SUNNY     68  57  68 W3        30.10S
TRACY          SUNNY     70  60  70 SW3       30.09R
SLAYTON        SUNNY     68  58  71 CALM      30.10S
$$
MNZ065>067-074>077-082>085-091>093-311500-
   South Central Minnesota

CITY           SKY/WX    TMP DP  RH WIND       PRES   REMARKS
MANKATO        PTSUNNY   64  55  72 CALM      30.08S
NEW ULM        SUNNY     64  61  88 CALM      30.07S
ST JAMES       SUNNY     73  61  64 CALM      30.08F
FAIRMONT       MOSUNNY   70  55  60 W7        30.09S
GLENCOE        SUNNY     70  57  64 CALM      30.06S
FARIBAULT      SUNNY     72  55  56 W3        30.07R
OWATONNA       SUNNY     64  57  77 W5        30.08R
WASECA         MOSUNNY   61  55  82 W3        30.10S
ALBERT LEA     SUNNY     68  57  68 CALM      30.08S
$$
MNZ078>079-086>088-094>096-311500-
   Southeast Minnesota

CITY           SKY/WX    TMP DP  RH WIND       PRES   REMARKS
ROCHESTER      SUNNY     67  58  72 W6        30.09R
RED WING       SUNNY     66  61  82 W3        30.04R
STANTON        SUNNY     67  58  73 SW5       30.05R
DODGE CENTER   SUNNY     68  57  68 W6        30.07S
WINONA         SUNNY     70  61  73 NW5       30.04S
AUSTIN         PTSUNNY   66  57  72 NW3       30.08R
PRESTON        SUNNY     65  62  88 NW7       30.08R
$$
ABBREVIATIONS USED IN REMARKS
   TC - TEMPERATURES IN CELSIUS
  WCI - WIND CHILL INDEX
   HX - HEAT INDEX
  VSB - VISIBILITY
$$


USA.gov is the U.S. government's official web portal to all federal, state and local government web resources and services.